GFSGL_con_mucape_210.txt.gz
CAPE
365 427 453 474 533 652 740 809 832 732 755 969 1138 1651 1787 1957 1858 1826 1592 1344 703 610 415 104 0 0 0 0 0 0 0 0 0 0 0 0 0 0 0 0 0 0 0
347 384 423 458 420 449 588 643 823 882 707 639 666 889 1267 1719 1869 1877 1796 1437 1336 660 747 559 35 0 0 0 0 0 0 0 0 0 0 0 0 0 0 0 0 0 0
429 394 360 381 373 332 344 385 471 823 834 594 689 979 1218 1701 1912 1925 1848 1512 1558 1051 774 867 610 42 0 0 0 0 0 0 0 0 0 0 0 0 0 0 0 0 0
365 421 357 322 313 287 259 155 159 344 661 664 642 927 1167 1580 1897 1984 1871 1611 1635 1736 916 683 910 550 189 20 0 0 0 0 0 0 0 0 0 0 0 0 0 0 0
260 374 383 321 269 263 265 228 77 93 229 380 338 699 1058 1365 1796 1953 1889 1680 1627 1808 1801 825 729 935 693 246 92 28 0 0 0 0 0 0 0 0 0 0 0 0 0
314 324 295 269 253 284 295 273 235 199 188 238 286 407 705 927 1154 1662 1791 1728 1626 1816 1988 1842 750 870 916 593 426 100 7 0 0 0 0 0 0 0 0 0 0 0 0
353 337 358 308 255 286 338 301 289 321 313 347 456 551 630 747 900 1156 1345 1588 1689 1851 1763 2032 1311 711 867 907 702 456 103 1 0 0 0 0 0 0 0 0 0 0 0
367 379 460 368 338 305 368 366 401 413 431 509 654 842 981 1013 1167 1188 1124 1166 1577 1954 2012 2041 1903 869 665 843 977 743 239 36 0 0 0 0 0 0 0 0 0 0 0
480 502 545 496 433 386 424 524 620 606 687 713 762 921 1034 1174 1242 1305 1356 1417 1680 1968 2066 1794 1899 1774 777 554 810 913 515 54 0 0 0 0 0 0 0 0 0 0 0
584 620 638 623 554 519 563 602 716 725 746 853 820 1013 1115 1200 1232 1357 1458 1472 1565 1774 2031 1936 1628 1777 1590 917 627 832 852 61 23 0 0 0 0 0 0 0 0 0 0
576 626 652 693 686 684 714 737 785 798 902 879 946 1052 1154 1206 1292 1405 1479 1523 1540 1775 1960 2041 1774 1579 1851 1342 844 742 764 398 55 1 0 0 0 0 0 0 0 0 0
601 658 699 762 794 812 834 856 858 864 885 955 1015 1087 1150 1292 1321 1447 1513 1602 1669 1733 1870 1983 2072 1732 1645 1561 1152 663 625 527 82 63 0 0 0 0 0 0 0 0 0
655 727 735 769 850 950 875 892 943 987 1083 1101 1109 1177 1291 1293 1337 1424 1347 1504 1690 1762 1856 2012 2142 1986 1655 1389 1185 667 413 562 181 7 58 0 0 0 0 0 0 0 0
665 658 752 806 846 947 998 1017 1040 1081 1171 1262 1295 1318 1413 1348 1378 1378 1396 1349 1257 1525 1709 1895 1824 1809 1583 1325 1163 678 324 485 67 0 0 0 0 0 0 0 0 0 0
598 635 647 783 845 935 1062 1141 1227 1238 1232 1319 1353 1401 1460 1445 1318 1287 1376 1329 1291 1172 1229 1581 1463 1461 1393 1168 1152 830 348 564 2 0 0 0 0 0 0 0 0 0 0
687 737 779 800 813 887 968 1075 1176 1242 1286 1281 1294 1306 1444 1389 1476 1435 1531 1696 1898 1853 1674 1448 1611 1385 1778 1686 1403 836 336 544 0 0 0 0 0 0 0 0 0 0 0
736 745 775 830 857 878 915 1037 1156 1131 1217 1312 1423 1510 1519 1556 1593 1745 1939 2097 2357 2313 2164 2003 1629 1930 1701 1069 1090 587 393 679 1 0 0 0 0 0 0 0 0 0 0
1586 1483 1438 1393 1341 1309 1315 1309 1268 1219 1205 1250 1404 1611 1787 1893 2056 2183 2305 2306 2486 2545 2507 1987 2020 1497 1028 1084 1331 336 358 673 4 0 0 0 0 0 0 0 0 0 0
2988 2611 2517 2513 2495 2435 2342 2227 2148 2148 2157 2258 2386 2419 2512 2534 2565 2479 2358 2412 2520 2669 2763 2121 2417 1838 1431 1012 781 207 263 371 0 4 0 0 0 0 0 0 0 0 0
2828 3274 3425 3360 3244 3177 3037 2926 2914 2908 2915 2935 2934 2925 2900 2853 2783 2563 2203 2301 2345 2377 2436 2165 1959 1869 1435 1101 299 264 373 3 0 1 0 0 0 0 0 0 0 0 0
2076 2576 2796 2882 3044 3122 3306 3357 3257 3194 3166 3141 3107 3030 3034 3027 2864 2807 2653 2260 2320 2369 2211 1930 2054 1801 1249 721 245 357 297 0 0 0 0 1 0 0 0 0 0 0 0
454 744 1628 2322 2709 2683 2458 2440 2810 2990 2950 2804 2784 2764 2840 2787 2618 2565 2612 2484 2436 2351 2160 1744 1850 1514 1035 542 357 492 0 0 0 0 0 0 0 0 0 0 0 0 0
355 416 512 677 910 1573 1738 1805 2288 2690 2490 2344 2150 2161 2584 2577 2559 2609 2450 2269 2043 1691 1467 1635 1539 1298 773 447 455 144 2 0 0 0 0 0 0 0 0 0 0 0 0
176 230 290 427 536 620 895 1216 1709 1859 1957 2029 2044 2114 2500 2631 2536 2494 2293 1948 1508 1303 1096 1001 1237 1131 780 531 353 171 3 0 0 0 0 0 0 0 0 0 0 0 0
15 65 120 167 239 417 626 706 973 1183 1460 1742 1838 1978 2260 2559 2358 2191 1920 1424 865 556 637 615 816 860 693 224 183 7 0 0 0 0 0 0 0 0 0 0 0 0 0
0 0 2 19 57 266 342 610 775 1069 1605 1632 1719 1918 1972 1775 1907 1710 1266 690 606 453 515 436 621 664 287 256 18 26 0 0 0 0 0 0 0 0 0 0 0 0 0

GFSGL_con_mucape_216.txt.gz
CAPE
2102 1838 2027 1749 2002 2090 1910 2153 2221 2313 2719 2660 2771 2798 2921 3081 3292 3148 3069 2655 2229 1929 1133 715 483 699 733 595 227 42 29 29 17 0 0 0 0 0 0 0 0 0 0
2619 2794 1899 1785 1702 1671 1789 1717 1964 2233 2384 2570 2494 2768 2913 2946 3064 3071 2806 2394 2647 2408 1833 1229 1108 476 489 777 857 659 294 149 100 0 0 3 17 0 0 0 0 0 0
2604 1875 1828 1954 1905 1899 1845 1722 1775 1999 2200 2128 2265 2460 2631 2698 2738 2806 2716 2532 2698 2673 2387 1831 1398 1247 1003 438 559 804 785 438 158 118 0 0 0 0 0 0 0 0 0
1714 1701 2241 1830 1871 1880 2114 2441 2158 2238 2209 2142 2125 2276 2450 2422 2388 2530 2487 2635 2659 2701 2711 2235 1810 1280 1331 1390 799 513 680 727 499 224 106 0 0 0 2 0 1 0 0
2601 2150 2705 2797 2684 2666 2912 2794 2668 2640 2307 2151 2137 2166 2306 2288 2133 2328 2398 2374 2566 2686 2720 2484 2013 1423 1086 1540 1595 1039 449 513 572 536 400 12 0 0 0 0 0 0 0
2632 2728 3066 3438 3376 3514 3534 3475 3365 2847 2715 2600 2513 2034 2006 1841 1157 1262 1268 1767 2008 2350 2649 2661 2466 1306 1004 1297 1560 1536 1276 543 448 451 483 282 0 0 0 0 0 0 0
2696 2978 3242 3535 3571 3663 3494 3390 3376 3182 3128 2920 2590 2430 2309 2181 1049 880 845 1587 1436 1683 2334 2594 2536 2118 1126 770 1288 1388 1512 1548 873 494 450 331 61 0 0 0 0 0 0
2685 2911 3233 3472 3566 3711 3772 3731 3826 3195 3221 2978 2696 2803 2497 2311 1255 920 756 1408 1734 2031 2073 2427 3275 2737 2140 802 671 1323 1279 1340 1393 1116 643 359 312 25 0 0 0 0 0
2625 2883 3181 3311 3478 3645 3714 3848 3672 3387 3246 2778 2825 3197 3120 3011 1740 1333 1038 1593 1726 2010 2482 3325 3465 2951 1966 1368 671 1295 1482 1237 1213 1244 1220 589 200 130 0 0 0 0 0
2790 2807 3080 3384 3514 3617 3743 3962 3881 2955 3133 2463 3059 3363 2770 3266 2249 1749 1297 1760 1855 2081 2953 3302 2446 2078 1716 1334 853 1057 1574 1403 1205 1021 1287 1199 321 263 58 0 0 0 0
2493 2566 3005 3218 3603 3693 3901 3923 3651 3174 3066 3566 3492 3729 3556 3168 3420 2077 1709 1945 1881 1988 2114 2126 2142 1699 1490 1080 904 1082 1425 1662 1342 1056 982 1165 527 221 454 0 0 0 0
2461 2487 3060 3137 2545 2329 3692 3596 3567 3561 3780 3663 3962 3207 2484 3493 2382 2346 1993 1647 1671 2057 2465 1957 2310 1780 1604 1321 1144 1283 1422 1710 1911 970 1304 1186 730 484 414 0 0 0 0
2678 3041 3151 3121 2616 2932 3565 3107 2698 3189 2662 2808 2364 2334 2141 2097 2797 2212 1865 1743 1605 1356 2090 1952 1898 1863 1747 1583 1298 1569 1813 1705 1692 1523 1281 1141 802 145 267 0 0 0 0
2206 2758 2796 2813 2540 2559 2371 2457 2501 2308 2382 2361 2054 2121 1963 2000 2007 2113 1947 1831 1295 1335 1331 1318 1375 1414 1506 1605 1437 1363 1668 1326 1146 1073 1125 956 586 400 93 0 0 0 0
2363 2298 2295 2294 2270 2427 2708 2159 2136 2744 1951 2191 2221 2098 1893 1781 1616 1484 1942 2446 2323 2008 1676 1135 1098 1161 1302 1439 1545 1723 1795 1644 1313 1041 1025 610 528 527 0 0 0 0 0
2273 2280 2218 2096 2087 2163 2220 2571 1712 1602 1717 1594 1592 1519 1815 1313 1295 1445 1675 1626 1272 1255 1524 1749 1364 1546 1751 1930 2024 2072 1737 1456 1211 1375 1222 683 551 124 10 0 0 0 0
2223 1952 1913 1485 1974 2131 2303 2263 2350 1903 1416 1543 1594 1448 1417 1464 1401 1450 1528 1408 1432 1415 1519 2119 1638 1764 1907 2243 2416 2046 1843 1538 1534 1545 1314 623 576 151 0 0 0 0 0
2079 1329 1995 1939 1827 1808 1959 2141 2207 2198 2333 2466 1495 1197 1206 1251 1180 1156 1167 1221 1297 1410 1544 1810 1915 1986 2044 2268 2208 2384 1886 1602 1479 1357 731 870 480 57 2 0 0 0 0
1145 1114 1628 1608 1800 1724 1927 2008 2109 2182 2218 2264 2308 1958 1629 1204 1139 1248 1468 1722 2019 2131 2083 2236 2300 2216 2064 2155 2461 2247 2025 1637 1467 1417 1041 734 385 49 0 0 0 0 0
1392 1478 1202 2009 2084 2240 2061 2187 2369 2443 2603 2793 3003 3157 2643 2491 2579 2659 2643 2709 2758 2682 2552 2524 2271 2212 1995 1936 2146 2090 1651 1341 1708 1217 1221 808 240 0 0 0 0 0 0
593 1019 1620 1324 1689 1845 2084 2404 2735 3514 3336 3548 3501 3483 3197 2718 3167 3123 2364 2181 2764 2851 2745 2657 2622 2437 2171 2364 2263 1936 1747 881 1608 1588 1059 839 63 0 0 0 0 0 0
112 136 337 495 944 1488 2055 2401 2762 2825 3119 3109 3318 2713 2677 2633 2743 2827 3022 2618 2085 2365 2450 2462 2393 2193 2094 1668 1596 1288 1434 1030 1422 892 616 252 0 0 0 0 0 0 0
4 10 38 47 91 189 422 496 902 1163 1632 2062 2271 2339 2482 2106 1919 2145 2331 2220 2194 2394 2394 2466 2146 1750 1251 1067 817 866 834 962 1132 453 277 0 0 0 0 0 0 0 0
0 0 0 3 0 11 77 223 367 555 792 1191 1872 2103 2157 1796 1350 1425 1481 1698 2175 2434 2373 1875 1444 1058 831 676 561 700 843 960 610 198 300 0 0 0 0 0 0 0 0
0 0 0 0 0 1 0 0 27 193 339 504 673 881 1113 1275 1208 1411 1530 1715 1955 2195 2177 1655 919 784 582 344 340 540 748 946 140 307 161 0 0 0 0 0 0 0 0
0 0 0 0 2 8 5 13 33 35 117 241 412 666 842 1135 1249 1347 1606 1847 1878 1908 1725 1280 831 672 375 263 185 508 618 467 417 189 0 0 0 0 0 0 0 0 0

GFSGL_con_mucape_219.txt.gz
CAPE
2651 2799 3064 2224 2769 3176 2959 3224 3296 3288 3921 2826 2824 2824 2918 3126 3328 3426 3086 3035 3134 2921 2593 1926 1741 1489 774 452 325 423 509 410 200 13 0 0 0 0 0 0 0 0 0
3136 3574 3205 2022 2532 2399 3277 2924 2816 3587 3014 3036 2918 3040 3008 3097 3291 3374 3181 2347 2594 2777 2747 2627 2116 1661 1428 1504 672 1095 316 345 470 334 123 44 11 0 0 0 0 0 0
3292 2970 2559 1785 1863 2076 2494 2955 3092 3500 2991 2408 3109 3457 3320 3224 3371 3424 3503 2987 2604 2680 2745 2994 2703 2343 2555 1554 1728 896 465 291 136 320 338 250 182 1 0 0 0 0 0
2971 2707 2827 2016 2014 1661 2777 3202 3211 3540 3418 3229 3464 3579 3289 3254 3270 3506 3482 3592 3326 2882 3400 3540 3191 3248 3197 2590 1695 1819 1024 824 531 354 332 317 327 194 0 0 0 0 0
2965 3002 3121 3234 3143 2993 3134 3410 3544 3488 3199 3536 3539 3456 3347 2931 2388 3434 3280 3522 3906 3541 3437 3286 3515 3082 2243 2099 1828 2361 2148 827 864 1054 808 475 383 358 234 0 0 0 0
2971 3271 3581 3851 3720 3731 3697 3977 3970 4128 4030 4067 3732 3613 3455 2143 1532 1565 1788 2889 3400 3523 3665 3704 3646 2832 2221 2089 1755 1200 1086 1308 1074 1124 957 1299 804 554 330 257 43 0 1
2853 3448 3740 4029 4023 4016 4069 4149 4448 4331 4477 4358 4279 3930 3572 3547 1663 1207 1212 2525 2691 2666 2839 3176 3098 2106 2316 3103 2141 1715 1186 816 1143 1101 1131 862 838 1025 1048 241 122 57 0
3009 3241 3641 3886 4100 4141 4227 4249 4308 4417 4467 4461 4401 4362 4306 3823 2455 1582 1151 1689 2530 2971 2862 2856 3329 3479 3768 3530 3068 2060 1425 948 648 1119 1203 979 881 785 800 420 169 235 0
3418 3312 3630 3842 3944 4133 4192 4277 4293 4259 4365 4422 4325 4409 4430 4316 2655 1975 1461 1950 1898 2482 2715 3333 3497 3646 3337 2917 3077 3213 2152 1337 689 619 1178 1211 1012 700 466 507 285 136 0
3437 3575 3664 4041 4106 4212 4269 4318 4392 4396 4274 3426 3974 4260 3810 4406 3441 2695 2026 1970 2381 2118 2935 3214 2477 2452 2859 2661 2511 3042 2293 1504 866 706 1011 1404 1249 912 530 400 354 125 0
3745 3749 4067 4093 4309 4321 4462 4545 4523 4474 3576 4210 3900 4285 4303 4137 4115 3016 2493 2404 2222 1934 2011 2114 2237 1897 2062 2232 2222 2990 2424 1530 963 1049 1163 1336 1272 1555 797 612 143 3 0
3801 4129 4070 4191 3794 3615 4516 4573 4609 4599 4479 4213 4523 3867 3321 4466 3124 3135 2619 2331 2394 2591 2571 1994 1999 1316 1767 1914 2001 1900 1828 1393 1333 1355 1258 1421 1282 1415 945 425 300 0 0
4311 4215 4162 4179 3962 3986 4375 4410 4018 4353 3496 3455 3106 2971 2923 2918 3472 2637 2361 2434 2414 2278 2847 2085 1713 1515 1713 1880 1921 1814 1636 1519 1425 1490 1591 1450 1251 1187 774 648 27 0 0
3571 3918 4053 4057 3805 4018 2857 3248 3228 3198 3069 3137 2824 2797 2305 2800 2816 2777 1914 2198 2354 2144 2038 1941 1707 1486 1317 1244 1217 1271 1386 1479 1744 1899 1593 1409 1177 1157 873 425 105 0 0
3078 2970 3192 2844 2904 3171 3400 2854 2911 3381 2652 2772 2826 2442 2338 1995 1811 1825 1900 2961 2675 2438 2077 2248 1552 1215 1023 878 975 1310 1648 1902 2040 1904 1550 1406 1226 1123 513 265 27 0 0
2520 2642 2593 2519 2591 2683 2903 3102 2442 2024 2097 1966 1670 1618 2051 1474 1340 1130 1140 1094 1833 1899 1966 2419 2199 1747 1353 1064 1139 1561 1989 2203 2073 1776 1562 1404 1286 873 487 208 0 0 0
2793 2376 2671 2299 2653 2708 2697 2670 2833 2214 1605 1584 1534 1495 1493 1522 1631 1352 1289 1310 1479 1533 1956 1978 2112 2227 1817 1459 1506 1738 2055 2517 2052 1886 1656 1398 1313 1012 539 318 0 0 0
1343 1932 2300 2518 2257 2281 2317 2408 2274 2035 2170 2382 1449 1359 1532 1536 1469 1467 1411 1282 1354 1353 1569 1940 2172 2534 2113 1925 1747 1974 2054 2191 1871 1909 1816 1293 1126 1038 958 436 0 0 0
850 1512 1683 1886 2366 1945 2003 1998 1954 1929 1805 1580 1654 1649 1634 1495 1352 1301 1235 1194 1650 1765 1904 1966 1936 2324 2578 1872 1959 1786 1968 2044 2397 1738 1505 1054 1414 981 977 546 0 0 0
995 1033 1084 1191 1465 1564 1740 2425 2656 3097 2935 2183 2049 1954 1999 2198 1909 1230 1059 961 1341 1817 2290 2909 3107 2343 2063 1976 2003 1940 1813 1887 1683 1900 1125 1121 1421 1196 711 223 0 0 0
176 393 683 767 1139 1367 1276 1663 1730 1734 1821 1926 2156 1787 1918 2864 3017 3138 2534 2333 2060 2306 2771 3080 2905 2229 1978 2274 2143 2001 2045 1966 1249 987 1050 854 923 764 611 0 0 0 0
72 152 190 156 353 490 1001 1098 1346 1349 1779 1893 1173 1334 1822 1640 2237 2163 2442 2931 2589 2477 2373 2297 2002 2059 2272 1942 1676 1182 946 994 808 933 1019 820 620 488 6 0 0 0 0
0 0 8 1 60 136 302 327 411 575 513 683 779 899 993 1036 1368 1602 1618 1824 1902 2030 1786 2036 2305 2285 2241 1657 1065 788 494 481 615 641 776 811 227 103 0 0 0 0 0
0 0 0 0 3 20 82 77 117 229 174 129 251 462 693 1179 1347 1397 1390 1362 1342 1708 1668 2124 2404 2155 1516 1101 935 624 270 347 613 614 743 442 186 54 0 0 0 0 0
0 0 0 6 0 0 0 0 0 12 18 20 11 67 128 260 530 680 1405 1346 1419 1408 1590 1840 2193 2060 1624 1062 735 535 491 287 439 582 544 81 325 291 0 0 0 0 0
0 0 0 0 0 0 0 10 0 1 0 0 0 1 24 122 320 629 611 921 897 913 1227 1584 1243 1794 1418 964 706 535 358 152 314 583 316 350 420 311 0 0 0 0 0

GFSGL_con_mucape_222.txt.gz
CAPE
2722 2933 3024 2994 2735 2849 3399 4298 2917 3906 4295 4484 4069 4309 4373 4381 4514 4714 4468 4227 3943 3863 3623 3258 2694 2546 2003 1481 1310 471 154 121 134 117 70 136 210 191 130 10 0 0 0
2532 2753 2874 3066 2776 2418 2885 3697 4010 3571 4646 4053 4453 4259 4456 4347 4464 4532 4202 3202 3537 3821 3578 3624 3157 2506 2630 2078 1497 1312 1015 589 318 297 248 233 240 321 303 279 108 0 0
2487 2579 2815 2818 2538 2452 2460 3144 3597 3430 3556 3761 3871 4193 4132 4175 4364 4464 4447 4058 3822 3495 3707 3593 3497 3381 2952 2509 2168 1627 1288 691 576 530 538 515 603 550 450 433 424 239 1
2355 2554 2917 2641 2396 2268 2682 2729 3236 3397 3303 3450 3522 3696 3898 4061 3965 4112 4146 4085 3860 3621 3592 3521 3520 3398 3418 3207 2689 1981 1710 1358 890 656 620 580 556 430 524 541 402 305 171
2444 2622 2743 3057 2538 2364 2472 2864 2696 3051 3080 3266 3314 3504 3678 3399 3162 3609 3720 3690 3890 3826 3606 3539 3217 3239 3107 3097 2900 2504 2037 1759 1375 950 760 466 698 616 620 397 307 192 217
2513 2604 2941 2887 2879 2497 2559 2518 3073 2812 2842 3213 3142 3162 3259 3089 2255 1942 2589 3083 3128 3191 3317 3431 3367 2990 2782 2591 2447 2286 2284 2166 1922 1420 880 594 629 1005 1031 677 603 272 280
2565 2964 2990 3074 3000 2853 2734 2996 2664 3321 3066 3014 3154 3073 3212 3252 2591 1751 1512 2075 2493 2571 3002 3143 2729 2230 2028 2587 2811 2606 2458 2331 2168 1939 1318 876 574 812 962 815 637 450 132
2604 2538 3106 3213 3134 2888 3143 3089 3300 2941 3262 3466 3261 3432 3303 3168 2833 2518 2025 1464 2102 2415 2442 2340 2271 2170 2121 2445 2866 2861 2670 2531 2322 1873 1710 1441 628 662 973 948 1083 679 206
2455 2634 2929 3170 3266 3431 3176 3249 3334 3308 3600 3393 3606 3665 3612 3486 3053 2651 2401 2040 1781 1924 1956 2100 2200 2260 2295 2519 2500 2783 2935 2850 2579 2318 1631 1145 982 886 756 973 952 687 526
3550 2942 2962 3354 3249 3351 3565 3501 3461 3610 3425 3807 3782 3780 3724 3801 3395 3201 2625 2290 2208 1950 1923 1989 2018 1979 2070 2207 2299 2732 2950 2954 2584 2140 1624 1113 918 1134 919 1035 1002 728 97
3331 3822 3420 3383 3393 3563 3599 3846 3797 3789 3681 3598 3693 3797 3877 3584 3653 3441 3065 2565 2318 2211 2169 2148 2154 1968 1904 1736 1850 2133 2754 2940 2384 1887 1605 1257 1379 1255 1159 1006 860 585 99
3823 3612 3966 3602 3611 3323 3768 3709 3916 3871 3859 3819 3757 3544 3469 3673 3307 3283 3108 2982 2605 2594 2423 2203 2087 1770 1618 1503 1547 1706 1907 2402 2131 1622 1522 1207 1682 1239 1132 1238 1110 254 46
4853 4118 3633 4139 3815 3691 3774 3705 3822 3912 3815 3764 3702 3339 3549 3115 3728 3202 2949 2929 2602 2438 2563 2349 2374 2146 1831 1682 1693 1545 1604 1685 1618 1502 1353 1698 1659 1272 1110 1041 424 303 2
3908 4438 4309 4035 3876 3844 3545 3491 3708 3749 3801 3767 3602 3505 3245 3043 3275 2965 2899 2832 2729 2561 2376 2161 2169 2207 2068 1914 1757 1562 1212 1159 1081 981 1654 1906 1524 1195 964 1111 649 421 69
2549 3738 3722 3652 3489 3629 3672 3326 3155 3656 3484 3621 3567 3251 3236 3068 2865 2515 2501 2581 2270 2203 2124 1979 2172 1984 1662 1181 972 884 784 801 1013 1772 2018 1795 1571 1088 1078 888 597 261 36
2698 2353 2977 2619 2700 2855 3147 3430 2822 2545 2926 2849 2835 2894 3075 2267 2141 1952 1886 2035 2215 1914 1654 2269 2489 2228 1880 1792 1645 1536 1428 1078 1523 1746 1941 1809 1451 1239 915 963 730 821 268
2053 2104 2264 2206 2273 2609 2543 3025 3222 2773 2192 2147 2077 2188 2121 1856 1863 1615 1483 1272 1222 2128 2468 2500 2598 2758 2743 1824 1651 1705 1612 1548 1717 1505 2051 1521 1576 1474 1476 931 666 731 163
1752 1593 1860 2312 2310 2255 2518 2911 2898 3344 3335 2808 1933 1873 1865 1724 1546 1434 1364 1382 1341 1237 2235 2473 2678 2693 2406 2205 2010 1933 2054 1737 1648 1561 1779 1884 1599 1089 690 846 921 643 44
647 839 1685 2025 2236 2097 1760 1907 2037 2390 2480 2477 2364 1909 1580 1503 1369 1351 1341 1337 1790 1924 2047 2028 2052 1925 1975 2096 1991 1812 1878 1733 1723 1742 1542 1238 946 1261 722 1073 795 329 28
395 751 657 935 1247 1385 1431 1250 1238 1214 1307 1372 1410 1445 1562 1242 1263 1215 1334 1425 1370 1691 1699 1844 2217 2630 2115 2258 2491 1794 1896 1901 1776 1713 1583 1259 896 788 896 735 328 460 0
19 68 195 649 517 665 820 832 621 663 810 878 1006 1045 1319 1335 1383 1631 1601 1440 1035 1168 2015 2056 2614 2432 2638 2586 1798 1838 1843 1660 1235 1090 986 791 640 669 753 310 380 0 0
0 0 0 27 190 354 296 276 296 462 577 676 925 1075 926 899 824 727 703 485 776 1193 1396 1882 1954 2182 2147 1631 1959 1605 1282 836 509 288 342 368 657 619 539 210 46 0 0
0 0 0 0 4 95 157 81 55 7 82 160 169 388 472 593 479 350 233 9 262 637 1005 1458 1369 1443 1940 1961 2136 1489 999 704 407 288 366 433 442 412 230 67 0 0 0
0 0 0 0 0 0 5 0 4 0 0 10 78 116 198 260 266 100 3 8 145 793 1118 973 1045 1462 1065 1690 1544 1256 962 541 284 169 297 333 397 577 40 62 0 0 0
0 0 0 0 0 0 0 0 0 0 1 0 0 54 42 40 27 91 251 473 534 684 672 546 815 896 1216 673 1350 859 1035 526 263 72 135 220 487 139 7 191 89 0 0
0 0 0 0 0 0 0 0 0 0 0 0 0 0 0 1 4 2 12 96 171 225 391 478 551 643 660 697 495 827 829 583 288 118 67 209 94 259 301 120 192 1 0